Location: Unspecified
(0.0000°N, 0.0000°E)
Time: 20:56:23
(UTC+00:00)

FW4S - Visible Passes

Search period start: 10 April 2026 00:00
Search period end: 20 April 2026 00:00
Orbit: 680 x 2452 km, 80.7° (Epoch: 10 April)

Date Brightness Start Highest point End Pass type
(mag) Time Alt. Az. Time Alt. Az. Time Alt. Az.
10 Apr 10.3 03:54:10 10° NE 04:04:15 24° E 04:13:43 10° SE visible
10 Apr 9.5 18:42:57 10° WSW 18:44:54 12° W 18:46:58 10° NW visible
11 Apr 10.6 03:27:06 10° NE 03:34:00 15° E 03:40:36 10° ESE visible
11 Apr 8.6 05:18:42 10° N 05:32:43 87° E 05:45:21 10° S visible
12 Apr 8.8 04:48:48 10° N 05:02:37 67° E 05:14:56 10° SSE visible
13 Apr 9.3 04:19:15 10° NNE 04:32:27 49° E 04:44:11 10° SSE visible
14 Apr 9.7 03:50:10 10° NNE 04:02:14 36° E 04:13:00 10° SE visible
15 Apr 10.1 03:21:44 10° NE 03:31:57 25° E 03:41:12 10° SE visible
15 Apr 8.4 05:16:46 10° NNW 05:30:38 70° W 05:42:36 10° S visible
16 Apr 10.4 02:54:33 10° NE 03:01:37 16° E 03:08:12 10° ESE visible
16 Apr 8.4 04:46:30 10° N 05:00:35 89° E 05:12:32 10° S visible
17 Apr 8.6 04:16:34 10° N 04:30:27 69° E 04:42:08 10° SSE visible
18 Apr 9.0 03:47:00 10° NNE 04:00:14 50° E 04:11:22 10° SSE visible
19 Apr 9.5 03:17:54 10° NNE 03:29:57 36° E 03:40:13 10° SE visible
19 Apr 8.4 05:15:22 10° NNW 05:28:22 49° W 05:39:19 10° SSW visible
